This is the latest recevied weather packets stored in our database for station/object K5SVV. If no packets are shown the sender has not sent any weather packets the latest 10 day(s).
| Time | Temp. | Humidity | Pressure | Rain* | Wind** | Luminosity | Snow |
|---|---|---|---|---|---|---|---|
| 1778002525 | 26.67° C | 79% | 1005 hPa | 0 mm | - | 455 W/m² | - |
| 1778002222 | 26.11° C | 78% | 1005 hPa | 0 mm | - | 491 W/m² | - |
| 1778001920 | 26.67° C | 78% | 1005.2 hPa | 0 mm | - | 569 W/m² | - |
| 1778001615 | 26.11° C | 78% | 1004.9 hPa | 0 mm | - | 658 W/m² | - |
| 1778001311 | 26.11° C | 81% | 1004.9 hPa | 0 mm | - | 673 W/m² | - |
| 1778001008 | 25.56° C | 80% | 1005.2 hPa | 0 mm | - | 491 W/m² | - |
| 1778000705 | 25.56° C | 81% | 1005.2 hPa | 0 mm | - | 526 W/m² | - |
| 1778000400 | 25.56° C | 81% | 1005.2 hPa | 0 mm | - | 515 W/m² | - |
| 1778000096 | 25.56° C | 82% | 1005.1 hPa | 0 mm | - | 467 W/m² | - |
| 1777999792 | 25° C | 82% | 1004.9 hPa | 0 mm | - | 412 W/m² | - |
| 1777999489 | 25.56° C | 81% | 1004.9 hPa | 0 mm | - | 372 W/m² | - |
| 1777999187 | 25.56° C | 82% | 1005 hPa | 0 mm | - | 425 W/m² | - |
| 1777998885 | 25° C | 81% | 1005 hPa | 0 mm | - | 505 W/m² | - |
| 1777998584 | 25° C | 82% | 1005.3 hPa | 0 mm | - | 486 W/m² | - |
| 1777998280 | 25° C | 82% | 1005.5 hPa | 0 mm | - | 534 W/m² | - |
| 1777997976 | 25° C | 82% | 1005.2 hPa | 0 mm | - | 536 W/m² | - |
| 1777997673 | 25° C | 82% | 1005 hPa | 0 mm | - | 367 W/m² | - |
| 1777997371 | 25° C | 82% | 1005.3 hPa | 0 mm | - | 570 W/m² | - |
| 1777997069 | 24.44° C | 83% | 1005 hPa | 0 mm | - | 640 W/m² | - |
| 1777996765 | 24.44° C | 83% | 1005 hPa | 0 mm | - | 498 W/m² | - |
| 1777996461 | 24.44° C | 82% | 1005 hPa | 0 mm | - | 544 W/m² | - |
| 1777996158 | 24.44° C | 83% | 1005 hPa | 0 mm | - | 704 W/m² | - |
| 1777995854 | 24.44° C | 83% | 1005.1 hPa | 0 mm | - | 646 W/m² | - |
| 1777995550 | 23.89° C | 84% | 1005.1 hPa | 0 mm | - | 610 W/m² | - |
| 1777995248 | 23.89° C | 85% | 1005 hPa | 0 mm | - | 714 W/m² | - |
* Rain latest hour (hover to see other rain measurements)
** Current wind speed in m/s (hover to see current wind gust speed)